TimeMDT,TemperatureF,Dew PointF,Humidity,Sea Level PressureIn,VisibilityMPH,Wind Direction,Wind SpeedMPH,Gust SpeedMPH,PrecipitationIn,Events,Conditions,WindDirDegrees,DateUTC
12:56 AM,53.1,36.0,52,29.99,10.0,West,6.9,-,N/A,,Clear,260,2013-05-12 06:56:00
1:56 AM,54.0,36.0,51,29.98,10.0,West,5.8,-,N/A,,Clear,270,2013-05-12 07:56:00
2:56 AM,55.0,37.9,53,29.96,10.0,WSW,5.8,-,N/A,,Clear,240,2013-05-12 08:56:00
3:56 AM,57.0,39.0,51,29.94,10.0,West,9.2,-,N/A,,Clear,260,2013-05-12 09:56:00
4:56 AM,60.1,39.0,46,29.94,10.0,West,16.1,-,N/A,,Clear,260,2013-05-12 10:56:00
5:56 AM,61.0,39.0,44,29.92,10.0,West,15.0,-,N/A,,Clear,260,2013-05-12 11:56:00
6:56 AM,64.9,41.0,42,29.92,10.0,West,13.8,-,N/A,,Clear,260,2013-05-12 12:56:00
7:56 AM,66.9,39.9,37,29.92,10.0,WSW,21.9,-,N/A,,Clear,250,2013-05-12 13:56:00
8:56 AM,73.0,39.9,30,29.91,10.0,WSW,20.7,-,N/A,,Clear,250,2013-05-12 14:56:00
9:56 AM,73.0,37.9,28,29.93,10.0,WSW,23.0,-,N/A,,Clear,250,2013-05-12 15:56:00
10:56 AM,72.0,39.9,31,29.93,10.0,West,21.9,-,N/A,,Clear,260,2013-05-12 16:56:00
11:56 AM,73.0,37.9,28,29.91,10.0,WSW,20.7,28.8,N/A,,Clear,250,2013-05-12 17:56:00
12:56 PM,71.1,39.9,32,29.91,10.0,WSW,24.2,32.2,N/A,,Clear,250,2013-05-12 18:56:00
1:56 PM,71.1,41.0,34,29.89,10.0,SW,11.5,-,N/A,,Clear,230,2013-05-12 19:56:00
2:56 PM,73.9,41.0,30,29.86,10.0,WSW,20.7,27.6,N/A,,Clear,240,2013-05-12 20:56:00
3:56 PM,80.1,39.9,24,29.84,10.0,WSW,24.2,36.8,N/A,,Partly Cloudy,250,2013-05-12 21:56:00
4:56 PM,80.1,41.0,25,29.81,10.0,WSW,26.5,34.5,N/A,,Partly Cloudy,250,2013-05-12 22:56:00
5:56 PM,78.1,41.0,27,29.80,10.0,West,16.1,-,N/A,,Clear,260,2013-05-12 23:56:00
6:56 PM,77.0,39.9,26,29.78,10.0,WSW,18.4,25.3,N/A,,Clear,250,2013-05-13 00:56:00
7:56 PM,73.9,41.0,30,29.78,10.0,WSW,15.0,-,N/A,,Partly Cloudy,250,2013-05-13 01:56:00
8:56 PM,68.0,41.0,37,29.79,10.0,WSW,10.4,-,N/A,,Clear,240,2013-05-13 02:56:00
9:56 PM,64.9,39.9,40,29.81,10.0,WSW,11.5,-,N/A,,Clear,250,2013-05-13 03:56:00
10:56 PM,64.0,39.9,41,29.82,10.0,WSW,16.1,-,N/A,,Clear,250,2013-05-13 04:56:00
11:56 PM,63.0,41.0,45,29.83,10.0,WSW,13.8,-,N/A,,Clear,240,2013-05-13 05:56:00